| time (UTC) | temp C | wind direction | speed KPH | gust KPH | rain 1hr cm | rain 24hr cm | rain mn cm | humidity % | barometer mb |
| 20260506163520 | 13 | 113 | 1.6 | 6.4 | 0.00 | 0.00 | 0.00 | 83 | 1018.1 |
| 20260506162542 | 13 | 180 | 4.8 | 9.7 | 0.00 | 0.00 | 0.00 | 83 | 1018.1 |
| 20260506161519 | 13 | 180 | 6.4 | 9.7 | 0.00 | 0.00 | 0.00 | 83 | 1018.1 |
| 20260506160519 | 13 | 180 | 8.0 | 12.9 | 0.00 | 0.00 | 0.00 | 84 | 1018.1 |
| 20260506155519 | 13 | 180 | 6.4 | 12.9 | 0.00 | 0.00 | 0.00 | 83 | 1018.0 |
| 20260506154520 | 13 | 180 | 6.4 | 11.3 | 0.00 | 0.00 | 0.00 | 83 | 1017.8 |
| 20260506153527 | 13 | 180 | 6.4 | 14.5 | 0.00 | 0.00 | 0.00 | 84 | 1017.8 |
| 20260506152539 | 12 | 180 | 9.7 | 14.5 | 0.00 | 0.00 | 0.00 | 84 | 1017.6 |
| 20260506151519 | 12 | 180 | 8.0 | 11.3 | 0.00 | 0.00 | 0.00 | 84 | 1017.6 |
| 20260506150522 | 12 | 180 | 8.0 | 12.9 | 0.00 | 0.00 | 0.00 | 84 | 1017.6 |
| 20260506145519 | 12 | 180 | 9.7 | 12.9 | 0.00 | 0.00 | 0.00 | 85 | 1017.5 |
| 20260506144520 | 12 | 180 | 9.7 | 12.9 | 0.00 | 0.00 | 0.00 | 85 | 1017.4 |
| 20260506143519 | 12 | 180 | 8.0 | 12.9 | 0.00 | 0.00 | 0.00 | 85 | 1017.4 |
| 20260506142519 | 12 | 180 | 4.8 | 8.0 | 0.00 | 0.00 | 0.00 | 86 | 1017.3 |
| 20260506141524 | 12 | 135 | 6.4 | 11.3 | 0.00 | 0.00 | 0.00 | 85 | 1017.2 |
| 20260506140519 | 12 | 180 | 4.8 | 9.7 | 0.00 | 0.00 | 0.00 | 86 | 1017.2 |
| 20260506135519 | 12 | 180 | 4.8 | 8.0 | 0.00 | 0.00 | 0.00 | 86 | 1017.2 |
| 20260506134518 | 12 | 180 | 6.4 | 8.0 | 0.00 | 0.00 | 0.00 | 86 | 1017.1 |
| 20260506133521 | 12 | 158 | 4.8 | 9.7 | 0.00 | 0.00 | 0.00 | 86 | 1017.1 |
| 20260506132519 | 12 | 180 | 4.8 | 6.4 | 0.00 | 0.00 | 0.00 | 86 | 1016.9 |
| 20260506131625 | 12 | 158 | 4.8 | 8.0 | 0.00 | 0.00 | 0.00 | 86 | 1016.9 |
| 20260506130519 | 12 | 158 | 4.8 | 9.7 | 0.00 | 0.00 | 0.00 | 86 | 1016.9 |
| 20260506125600 | 12 | 180 | 4.8 | 9.7 | 0.00 | 0.00 | 0.00 | 86 | 1016.9 |
| 20260506124518 | 12 | 180 | 6.4 | 11.3 | 0.00 | 0.00 | 0.00 | 86 | 1016.7 |
| 20260506123547 | 12 | 180 | 6.4 | 12.9 | 0.00 | 0.00 | 0.00 | 86 | 1016.6 |
| 20260506122518 | 12 | 180 | 8.0 | 12.9 | 0.00 | 0.00 | 0.00 | 86 | 1016.7 |
| 20260506121519 | 12 | 158 | 9.7 | 16.1 | 0.00 | 0.00 | 0.00 | 86 | 1016.6 |
| 20260506120519 | 12 | 180 | 3.2 | 8.0 | 0.00 | 0.00 | 0.00 | 86 | 1016.5 |
| 20260506115637 | 12 | 180 | 4.8 | 9.7 | 0.00 | 0.00 | 0.00 | 86 | 1016.6 |
| 20260506114518 | 12 | 135 | 8.0 | 12.9 | 0.00 | 0.00 | 0.00 | 86 | 1016.6 |
| 20260506113519 | 12 | 180 | 8.0 | 14.5 | 0.00 | 0.00 | 0.00 | 86 | 1016.6 |
| 20260506112518 | 12 | 180 | 8.0 | 12.9 | 0.00 | 0.00 | 0.00 | 86 | 1016.6 |
| 20260506111519 | 12 | 180 | 6.4 | 11.3 | 0.00 | 0.00 | 0.00 | 86 | 1016.3 |
| 20260506110518 | 12 | 135 | 6.4 | 14.5 | 0.00 | 0.00 | 0.00 | 86 | 1016.3 |
| 20260506105519 | 12 | 135 | 6.4 | 11.3 | 0.00 | 0.00 | 0.00 | 86 | 1016.6 |
| 20260506104519 | 12 | 135 | 8.0 | 14.5 | 0.00 | 0.00 | 0.00 | 85 | 1016.6 |
| 20260506103519 | 12 | 158 | 3.2 | 8.0 | 0.00 | 0.00 | 0.00 | 86 | 1016.6 |
| 20260506102519 | 12 | 135 | 4.8 | 9.7 | 0.00 | 0.00 | 0.00 | 86 | 1016.5 |
| 20260506101518 | 12 | 135 | 11.3 | 20.9 | 0.00 | 0.00 | 0.00 | 86 | 1016.2 |
| 20260506100519 | 12 | 180 | 11.3 | 22.5 | 0.00 | 0.00 | 0.00 | 86 | 1016.2 |
| 20260506095518 | 12 | 180 | 9.7 | 16.1 | 0.00 | 0.00 | 0.00 | 86 | 1016.1 |
| 20260506094519 | 12 | 180 | 6.4 | 11.3 | 0.00 | 0.00 | 0.00 | 87 | 1016.0 |
| 20260506093518 | 12 | 180 | 4.8 | 8.0 | 0.00 | 0.00 | 0.00 | 88 | 1016.0 |
| 20260506092519 | 12 | 135 | 4.8 | 8.0 | 0.00 | 0.00 | 0.00 | 88 | 1016.1 |
| 20260506091538 | 12 | 90 | 3.2 | 6.4 | 0.00 | 0.00 | 0.00 | 88 | 1016.1 |
| 20260506090518 | 12 | 113 | 1.6 | 6.4 | 0.00 | 0.00 | 0.00 | 88 | 1016.1 |
| 20260506085518 | 11 | 270 | 3.2 | 8.0 | 0.00 | 0.00 | 0.00 | 89 | 1016.0 |
| 20260506084535 | 11 | 45 | 3.2 | 6.4 | 0.00 | 0.00 | 0.00 | 88 | 1015.7 |
| 20260506083519 | 11 | 113 | 4.8 | 9.7 | 0.00 | 0.00 | 0.00 | 88 | 1015.6 |
| 20260506082518 | 11 | 135 | 8.0 | 12.9 | 0.00 | 0.00 | 0.00 | 88 | 1015.5 |
| 20260506081518 | 11 | 293 | 4.8 | 12.9 | 0.00 | 0.00 | 0.00 | 88 | 1015.5 |
| 20260506080518 | 11 | 113 | 3.2 | 4.8 | 0.00 | 0.00 | 0.00 | 88 | 1015.5 |
| 20260506073518 | 11 | 0 | 3.2 | 8.0 | 0.00 | 0.00 | 0.00 | 87 | 1015.3 |
| 20260506072518 | 12 | 23 | 1.6 | 3.2 | 0.00 | 0.00 | 0.00 | 87 | 1015.2 |
| 20260506071518 | 12 | 23 | 1.6 | 4.8 | 0.00 | 0.00 | 0.00 | 86 | 1015.1 |
| 20260506070518 | 12 | 23 | 3.2 | 4.8 | 0.00 | 0.00 | 0.00 | 86 | 1015.1 |
| 20260506061541 | 12 | 90 | 3.2 | 6.4 | 0.00 | 0.00 | 0.00 | 84 | 1014.7 |
| 20260506060539 | 12 | 45 | 6.4 | 9.7 | 0.00 | 0.00 | 0.00 | 84 | 1014.7 |
| 20260506050518 | 13 | 180 | 3.2 | 16.1 | 0.00 | 0.00 | 0.00 | 80 | 1014.3 |
| 20260506044536 | 13 | 180 | 3.2 | 8.0 | 0.00 | 0.00 | 0.00 | 80 | 1014.0 |
| 20260506043525 | 14 | 225 | 6.4 | 14.5 | 0.00 | 0.00 | 0.00 | 79 | 1014.0 |
| 20260506042519 | 14 | 45 | 0.0 | 3.2 | 0.00 | 0.00 | 0.00 | 77 | 1013.8 |
| 20260506041518 | 14 | 23 | 4.8 | 9.7 | 0.00 | 0.00 | 0.00 | 77 | 1013.5 |
| 20260506040519 | 15 | 23 | 3.2 | 6.4 | 0.00 | 0.00 | 0.00 | 75 | 1013.5 |
| 20260506035539 | 15 | 68 | 3.2 | 8.0 | 0.00 | 0.00 | 0.00 | 74 | 1013.4 |
| 20260506034519 | 15 | 90 | 3.2 | 9.7 | 0.00 | 0.00 | 0.00 | 73 | 1013.2 |
| 20260506033519 | 16 | 45 | 3.2 | 4.8 | 0.00 | 0.00 | 0.00 | 72 | 1013.1 |
| 20260506032539 | 16 | 68 | 3.2 | 8.0 | 0.00 | 0.00 | 0.00 | 71 | 1012.9 |
| 20260506031519 | 17 | 90 | 3.2 | 8.0 | 0.00 | 0.00 | 0.00 | 70 | 1012.9 |
| 20260506030518 | 17 | 113 | 3.2 | 8.0 | 0.00 | 0.00 | 0.00 | 69 | 1012.8 |
| 20260506025519 | 17 | 113 | 1.6 | 8.0 | 0.00 | 0.00 | 0.00 | 67 | 1012.5 |
| 20260506024631 | 18 | 90 | 4.8 | 11.3 | 0.00 | 0.00 | 0.00 | 66 | 1012.4 |
| 20260506023518 | 18 | 225 | 6.4 | 9.7 | 0.00 | 0.00 | 0.00 | 67 | 1012.4 |
| 20260506022519 | 18 | 315 | 3.2 | 8.0 | 0.00 | 0.00 | 0.00 | 65 | 1012.3 |
| 20260506021518 | 18 | 203 | 3.2 | 11.3 | 0.00 | 0.00 | 0.00 | 66 | 1012.1 |
| 20260506020519 | 18 | 225 | 3.2 | 8.0 | 0.00 | 0.00 | 0.00 | 64 | 1012.1 |
| 20260506015519 | 19 | 225 | 9.7 | 20.9 | 0.00 | 0.00 | 0.00 | 64 | 1012.1 |
| 20260506014518 | 19 | 225 | 6.4 | 11.3 | 0.00 | 0.00 | 0.00 | 64 | 1012.0 |
| 20260506013519 | 19 | 180 | 9.7 | 16.1 | 0.00 | 0.00 | 0.00 | 64 | 1012.0 |
| 20260506012518 | 19 | 180 | 12.9 | 25.7 | 0.00 | 0.00 | 0.00 | 62 | 1012.1 |
| 20260506011519 | 20 | 180 | 12.9 | 20.9 | 0.00 | 0.00 | 0.00 | 63 | 1012.1 |
| 20260506010518 | 20 | 180 | 14.5 | 22.5 | 0.00 | 0.00 | 0.00 | 62 | 1012.1 |
| 20260506005518 | 20 | 180 | 11.3 | 19.3 | 0.00 | 0.00 | 0.00 | 62 | 1012.1 |
| 20260506004518 | 20 | 180 | 11.3 | 20.9 | 0.00 | 0.00 | 0.00 | 62 | 1012.3 |
| 20260506003518 | 20 | 180 | 16.1 | 32.2 | 0.00 | 0.00 | 0.00 | 61 | 1012.3 |
| 20260506002519 | 20 | 180 | 12.9 | 20.9 | 0.00 | 0.00 | 0.00 | 60 | 1012.3 |
| 20260506001519 | 21 | 180 | 12.9 | 24.1 | 0.00 | 0.00 | 0.00 | 59 | 1012.3 |
| 20260506000518 | 21 | 180 | 9.7 | 17.7 | 0.00 | 0.00 | 0.00 | 59 | 1012.3 |
| 20260505235544 | 21 | 180 | 11.3 | 24.1 | 0.00 | 0.00 | 0.00 | 59 | 1012.4 |
| 20260505234519 | 21 | 225 | 11.3 | 19.3 | 0.00 | 0.00 | 0.00 | 58 | 1012.4 |
| 20260505233546 | 21 | 180 | 11.3 | 19.3 | 0.00 | 0.00 | 0.00 | 58 | 1012.4 |
| 20260505232538 | 21 | 203 | 12.9 | 25.7 | 0.00 | 0.00 | 0.00 | 58 | 1012.4 |
| 20260505231606 | 21 | 180 | 16.1 | 27.4 | 0.00 | 0.00 | 0.00 | 58 | 1012.4 |
| 20260505230544 | 22 | 180 | 14.5 | 22.5 | 0.00 | 0.00 | 0.00 | 56 | 1012.4 |
| 20260505225519 | 22 | 180 | 14.5 | 25.7 | 0.00 | 0.00 | 0.00 | 56 | 1012.6 |
| 20260505224518 | 22 | 180 | 12.9 | 22.5 | 0.00 | 0.00 | 0.00 | 55 | 1012.7 |
| 20260505223519 | 23 | 180 | 14.5 | 25.7 | 0.00 | 0.00 | 0.00 | 55 | 1012.7 |
| 20260505222519 | 23 | 180 | 11.3 | 20.9 | 0.00 | 0.00 | 0.00 | 53 | 1012.9 |
| 20260505221518 | 23 | 180 | 16.1 | 25.7 | 0.00 | 0.00 | 0.00 | 53 | 1012.9 |
| 20260505220518 | 23 | 180 | 9.7 | 16.1 | 0.00 | 0.00 | 0.00 | 55 | 1012.9 |
| 20260505215541 | 23 | 180 | 11.3 | 17.7 | 0.00 | 0.00 | 0.00 | 54 | 1013.0 |
| 20260505214519 | 23 | 180 | 12.9 | 19.3 | 0.00 | 0.00 | 0.00 | 53 | 1013.1 |
| 20260505213518 | 23 | 180 | 11.3 | 20.9 | 0.00 | 0.00 | 0.00 | 53 | 1013.1 |
| 20260505212518 | 23 | 180 | 11.3 | 16.1 | 0.00 | 0.00 | 0.00 | 53 | 1013.1 |
| 20260505211611 | 23 | 180 | 11.3 | 16.1 | 0.00 | 0.00 | 0.00 | 55 | 1013.3 |
| 20260505210520 | 23 | 180 | 11.3 | 16.1 | 0.00 | 0.00 | 0.00 | 54 | 1013.3 |
| 20260505205540 | 23 | 180 | 12.9 | 19.3 | 0.00 | 0.00 | 0.00 | 56 | 1013.4 |
| 20260505204520 | 22 | 180 | 12.9 | 20.9 | 0.00 | 0.00 | 0.00 | 57 | 1013.5 |
| 20260505203519 | 22 | 180 | 12.9 | 20.9 | 0.00 | 0.00 | 0.00 | 57 | 1013.5 |
| 20260505202540 | 22 | 180 | 12.9 | 19.3 | 0.00 | 0.00 | 0.00 | 59 | 1013.5 |
| 20260505201540 | 22 | 180 | 12.9 | 24.1 | 0.00 | 0.00 | 0.00 | 59 | 1013.6 |
| 20260505200520 | 21 | 180 | 14.5 | 22.5 | 0.00 | 0.00 | 0.00 | 59 | 1013.6 |
| 20260505195540 | 21 | 225 | 9.7 | 17.7 | 0.00 | 0.00 | 0.00 | 61 | 1013.7 |
| 20260505194519 | 21 | 225 | 9.7 | 14.5 | 0.00 | 0.00 | 0.00 | 61 | 1013.9 |
| 20260505193520 | 21 | 180 | 9.7 | 19.3 | 0.00 | 0.00 | 0.00 | 62 | 1014.0 |
| 20260505192519 | 20 | 180 | 6.4 | 12.9 | 0.00 | 0.00 | 0.00 | 63 | 1014.0 |
| 20260505191517 | 20 | 225 | 4.8 | 9.7 | 0.00 | 0.00 | 0.00 | 64 | 1014.0 |
| 20260505190520 | 20 | 225 | 8.0 | 12.9 | 0.00 | 0.00 | 0.00 | 64 | 1014.0 |
| 20260505185520 | 19 | 248 | 4.8 | 11.3 | 0.00 | 0.00 | 0.00 | 67 | 1014.2 |
| 20260505184521 | 19 | 225 | 4.8 | 8.0 | 0.00 | 0.00 | 0.00 | 67 | 1014.3 |
| 20260505183519 | 18 | 225 | 4.8 | 8.0 | 0.00 | 0.00 | 0.00 | 69 | 1014.3 |
| 20260505182519 | 18 | 225 | 6.4 | 11.3 | 0.00 | 0.00 | 0.00 | 71 | 1014.3 |
| 20260505181520 | 17 | 68 | 1.6 | 8.0 | 0.00 | 0.00 | 0.00 | 75 | 1014.3 |
| 20260505180522 | 16 | 23 | 3.2 | 6.4 | 0.00 | 0.00 | 0.00 | 76 | 1014.3 |
| 20260505175520 | 16 | 113 | 3.2 | 6.4 | 0.00 | 0.00 | 0.00 | 79 | 1014.4 |
| 20260505174519 | 16 | 23 | 4.8 | 9.7 | 0.00 | 0.00 | 0.00 | 79 | 1014.5 |
| 20260505173519 | 15 | 68 | 1.6 | 6.4 | 0.00 | 0.00 | 0.00 | 82 | 1014.5 |
| 20260505172519 | 14 | 135 | 1.6 | 4.8 | 0.00 | 0.00 | 0.00 | 83 | 1014.5 |
| 20260505171523 | 13 | 90 | 3.2 | 8.0 | 0.00 | 0.00 | 0.00 | 84 | 1014.5 |
| 20260505170555 | 13 | 45 | 3.2 | 8.0 | 0.00 | 0.00 | 0.00 | 84 | 1014.5 |
| 20260505165519 | 13 | 225 | 1.6 | 3.2 | 0.00 | 0.00 | 0.00 | 85 | 1014.5 |
| 20260505164641 | 13 | 225 | 6.4 | 9.7 | 0.00 | 0.00 | 0.00 | 86 | 1014.5 |